TimeEDT,TemperatureF,Dew PointF,Humidity,Sea Level PressureIn,VisibilityMPH,Wind Direction,Wind SpeedMPH,Gust SpeedMPH,PrecipitationIn,Events,Conditions,WindDirDegrees,DateUTC
12:51 AM,55.9,48.0,75,30.20,10.0,SSW,6.9,-,N/A,,Overcast,200,2013-05-28 04:51:00
1:51 AM,55.0,48.9,80,30.21,10.0,SW,6.9,-,N/A,,Overcast,220,2013-05-28 05:51:00
2:51 AM,55.0,48.0,77,30.20,10.0,SW,6.9,-,N/A,,Overcast,230,2013-05-28 06:51:00
3:51 AM,54.0,48.9,83,30.20,10.0,SW,6.9,-,N/A,,Overcast,230,2013-05-28 07:51:00
4:51 AM,54.0,48.9,83,30.20,10.0,SW,4.6,-,N/A,,Overcast,230,2013-05-28 08:51:00
5:51 AM,55.0,48.9,80,30.20,10.0,Calm,Calm,-,N/A,,Mostly Cloudy,0,2013-05-28 09:51:00
6:51 AM,61.0,48.9,64,30.21,10.0,NNE,3.5,-,N/A,,Mostly Cloudy,20,2013-05-28 10:51:00
7:51 AM,61.0,50.0,67,30.22,10.0,SSW,5.8,-,N/A,,Mostly Cloudy,200,2013-05-28 11:51:00
8:51 AM,64.9,48.0,54,30.23,10.0,Calm,Calm,-,N/A,,Mostly Cloudy,0,2013-05-28 12:51:00
9:51 AM,66.9,48.0,51,30.23,10.0,SSW,5.8,-,N/A,,Overcast,210,2013-05-28 13:51:00
10:51 AM,66.0,46.9,50,30.24,10.0,SSW,4.6,-,N/A,,Overcast,210,2013-05-28 14:51:00
11:51 AM,60.1,51.1,72,30.25,8.0,South,6.9,-,0.00,Rain,Light Rain,190,2013-05-28 15:51:00
12:51 PM,60.1,51.1,72,30.24,9.0,SSE,5.8,-,0.03,Rain,Light Rain,160,2013-05-28 16:51:00
1:51 PM,59.0,51.1,75,30.22,9.0,SE,6.9,-,0.02,Rain,Light Rain,130,2013-05-28 17:51:00
2:51 PM,57.9,51.1,78,30.19,10.0,ESE,9.2,-,0.03,Rain,Light Rain,110,2013-05-28 18:51:00
3:17 PM,57.2,51.8,82,30.20,5.0,East,8.1,-,0.02,Rain,Heavy Rain,90,2013-05-28 19:17:00
3:36 PM,57.2,53.6,88,30.20,3.0,NE,4.6,-,0.09,Rain,Heavy Rain,50,2013-05-28 19:36:00
3:51 PM,57.0,54.0,89,30.20,3.0,ENE,4.6,-,0.19,Rain,Rain,70,2013-05-28 19:51:00
4:23 PM,57.2,55.4,94,30.21,5.0,East,5.8,-,0.05,Rain,Light Rain,100,2013-05-28 20:23:00
4:51 PM,57.9,55.9,93,30.20,4.0,East,6.9,-,0.15,Rain,Rain,90,2013-05-28 20:51:00
5:51 PM,57.9,55.9,93,30.18,6.0,ESE,6.9,-,0.05,,Overcast,110,2013-05-28 21:51:00
6:51 PM,57.9,55.9,93,30.17,7.0,SE,9.2,-,0.03,Rain,Light Rain,130,2013-05-28 22:51:00
7:51 PM,57.9,55.9,93,30.16,6.0,ESE,8.1,-,0.03,Rain,Light Rain,110,2013-05-28 23:51:00
8:51 PM,57.0,55.9,96,30.15,7.0,ESE,4.6,-,0.01,,Overcast,120,2013-05-29 00:51:00
9:51 PM,57.9,55.9,93,30.16,7.0,East,4.6,-,0.00,Rain,Light Rain,80,2013-05-29 01:51:00
10:51 PM,57.9,55.9,93,30.15,8.0,ESE,4.6,-,0.00,,Overcast,110,2013-05-29 02:51:00
11:51 PM,57.9,55.9,93,30.14,8.0,East,3.5,-,N/A,,Overcast,90,2013-05-29 03:51:00